Wetterdaten: Freitag, 08.03.2013
Datum Zeit Temp. I. Temp. A. Boden 5 cm Feuchte A. Sonne Luftdruck Regen Wind Sonnenschein
08.03.2013 00:00 21,5 C 8,2 C 6,2 C 72 % 0 % 996 hPa 0,0 l/m 0,0 km/h (0 Bft) 0 min
08.03.2013 00:03 21,5 C 8,2 C 6,6 C 72 % 0 % 996 hPa 0,0 l/m 0,0 km/h (0 Bft) 0 min
08.03.2013 00:06 21,5 C 8,2 C 6,6 C 73 % 0 % 996 hPa 0,0 l/m 0,0 km/h (0 Bft) 0 min
08.03.2013 00:09 21,5 C 8,1 C 6,8 C 74 % 0 % 996 hPa 0,0 l/m 0,0 km/h (0 Bft) 0 min
08.03.2013 00:12 21,5 C 8,1 C 6,5 C 74 % 0 % 996 hPa 0,0 l/m 0,0 km/h (0 Bft) 0 min
08.03.2013 00:15 21,5 C 8,1 C 6,3 C 73 % 0 % 996 hPa 0,0 l/m 0,0 km/h (0 Bft) 0 min
08.03.2013 00:18 21,5 C 8,1 C 6,6 C 73 % 0 % 996 hPa 0,0 l/m 0,0 km/h (0 Bft) 0 min
08.03.2013 00:21 21,5 C 8,1 C 6,6 C 73 % 0 % 996 hPa 0,0 l/m 0,0 km/h (0 Bft) 0 min
08.03.2013 00:24 21,5 C 8,1 C 6,3 C 72 % 0 % 996 hPa 0,0 l/m 0,0 km/h (0 Bft) 0 min
08.03.2013 00:27 21,5 C 8,1 C 6,5 C 72 % 0 % 996 hPa 0,0 l/m 0,0 km/h (0 Bft) 0 min
08.03.2013 00:30 21,5 C 8,1 C 6,4 C 72 % 0 % 996 hPa 0,0 l/m 0,0 km/h (0 Bft) 0 min
08.03.2013 00:33 21,5 C 8,1 C 6,4 C 72 % 0 % 996 hPa 0,0 l/m 0,0 km/h (0 Bft) 0 min
08.03.2013 00:36 21,5 C 8,1 C 6,2 C 72 % 0 % 996 hPa 0,0 l/m 0,0 km/h (0 Bft) 0 min
08.03.2013 00:39 21,5 C 8,1 C 6,4 C 72 % 0 % 996 hPa 0,0 l/m 0,0 km/h (0 Bft) 0 min
08.03.2013 00:42 21,5 C 8,0 C 6,4 C 72 % 0 % 996 hPa 0,0 l/m 0,0 km/h (0 Bft) 0 min
08.03.2013 00:45 21,5 C 8,0 C 6,5 C 71 % 0 % 996 hPa 0,0 l/m 0,0 km/h (0 Bft) 0 min
08.03.2013 00:48 21,5 C 8,0 C 6,4 C 72 % 0 % 996 hPa 0,0 l/m 0,0 km/h (0 Bft) 0 min
08.03.2013 00:51 21,5 C 8,0 C 6,6 C 72 % 0 % 996 hPa 0,0 l/m 0,0 km/h (0 Bft) 0 min
08.03.2013 00:54 21,5 C 7,9 C 6,5 C 72 % 0 % 996 hPa 0,0 l/m 4,6 km/h (1 Bft) 0 min
08.03.2013 00:57 21,5 C 7,8 C 6,4 C 72 % 0 % 996 hPa 0,0 l/m 3,1 km/h (1 Bft) 0 min
08.03.2013 01:00 21,5 C 7,8 C 6,3 C 72 % 0 % 996 hPa 0,0 l/m 0,0 km/h (0 Bft) 0 min
08.03.2013 01:03 21,5 C 7,8 C 6,3 C 72 % 0 % 996 hPa 0,0 l/m 0,0 km/h (0 Bft) 0 min
08.03.2013 01:06 21,5 C 7,8 C 6,3 C 72 % 0 % 996 hPa 0,0 l/m 0,0 km/h (0 Bft) 0 min
08.03.2013 01:09 21,6 C 7,8 C 6,2 C 72 % 0 % 996 hPa 0,0 l/m 0,0 km/h (0 Bft) 0 min
08.03.2013 01:12 21,5 C 7,8 C 6,2 C 72 % 0 % 996 hPa 0,0 l/m 0,0 km/h (0 Bft) 0 min
08.03.2013 01:15 21,6 C 7,8 C 6,7 C 72 % 0 % 996 hPa 0,0 l/m 0,0 km/h (0 Bft) 0 min
08.03.2013 01:18 21,6 C 7,8 C 6,5 C 71 % 0 % 996 hPa 0,0 l/m 0,0 km/h (0 Bft) 0 min
08.03.2013 01:21 21,6 C 7,8 C 6,5 C 71 % 0 % 996 hPa 0,0 l/m 0,0 km/h (0 Bft) 0 min
08.03.2013 01:24 21,6 C 7,8 C 6,4 C 71 % 0 % 996 hPa 0,0 l/m 0,0 km/h (0 Bft) 0 min
08.03.2013 01:27 21,6 C 7,7 C 6,3 C 71 % 0 % 996 hPa 0,0 l/m 0,0 km/h (0 Bft) 0 min
08.03.2013 01:30 21,6 C 7,7 C 6,3 C 71 % 0 % 996 hPa 0,0 l/m 0,0 km/h (0 Bft) 0 min
08.03.2013 01:33 21,6 C 7,7 C 6,2 C 72 % 0 % 996 hPa 0,0 l/m 0,0 km/h (0 Bft) 0 min
08.03.2013 01:36 21,6 C 7,7 C 6,2 C 72 % 0 % 996 hPa 0,0 l/m 0,0 km/h (0 Bft) 0 min
08.03.2013 01:39 21,6 C 7,7 C 6,1 C 72 % 0 % 996 hPa 0,0 l/m 0,0 km/h (0 Bft) 0 min
08.03.2013 01:42 21,6 C 7,7 C 6,1 C 71 % 0 % 996 hPa 0,0 l/m 0,0 km/h (0 Bft) 0 min
08.03.2013 01:45 21,6 C 7,7 C 6,1 C 71 % 0 % 996 hPa 0,0 l/m 0,0 km/h (0 Bft) 0 min
08.03.2013 01:48 21,6 C 7,6 C 6,3 C 72 % 0 % 996 hPa 0,0 l/m 0,0 km/h (0 Bft) 0 min
08.03.2013 01:51 21,6 C 7,6 C 6,3 C 72 % 0 % 996 hPa 0,0 l/m 0,6 km/h (0 Bft) 0 min
08.03.2013 01:54 21,6 C 7,6 C 6,1 C 72 % 0 % 996 hPa 0,0 l/m 0,8 km/h (0 Bft) 0 min
08.03.2013 01:57 21,6 C 7,5 C 6,1 C 72 % 0 % 996 hPa 0,0 l/m 0,0 km/h (0 Bft) 0 min
08.03.2013 02:00 21,6 C 7,5 C 6,1 C 72 % 0 % 996 hPa 0,0 l/m 0,0 km/h (0 Bft) 0 min
08.03.2013 02:03 21,6 C 7,5 C 6,0 C 72 % 0 % 996 hPa 0,0 l/m 0,0 km/h (0 Bft) 0 min
08.03.2013 02:06 21,6 C 7,5 C 6,1 C 73 % 0 % 996 hPa 0,0 l/m 0,0 km/h (0 Bft) 0 min
08.03.2013 02:09 21,6 C 7,5 C 6,1 C 73 % 0 % 996 hPa 0,0 l/m 0,0 km/h (0 Bft) 0 min
08.03.2013 02:12 21,6 C 7,5 C 6,2 C 73 % 0 % 996 hPa 0,0 l/m 0,0 km/h (0 Bft) 0 min
08.03.2013 02:15 21,6 C 7,5 C 6,2 C 73 % 0 % 996 hPa 0,0 l/m 0,0 km/h (0 Bft) 0 min
08.03.2013 02:18 21,6 C 7,4 C 6,1 C 73 % 0 % 996 hPa 0,0 l/m 0,0 km/h (0 Bft) 0 min
08.03.2013 02:21 21,6 C 7,4 C 6,2 C 73 % 0 % 996 hPa 0,0 l/m 0,0 km/h (0 Bft) 0 min
08.03.2013 02:24 21,6 C 7,5 C 6,1 C 73 % 0 % 996 hPa 0,0 l/m 0,0 km/h (0 Bft) 0 min
08.03.2013 02:27 21,6 C 7,4 C 6,1 C 73 % 0 % 996 hPa 0,0 l/m 0,0 km/h (0 Bft) 0 min
08.03.2013 02:30 21,6 C 7,4 C 6,0 C 73 % 0 % 996 hPa 0,0 l/m 0,0 km/h (0 Bft) 0 min
08.03.2013 02:33 21,6 C 7,4 C 5,7 C 73 % 0 % 996 hPa 0,0 l/m 0,0 km/h (0 Bft) 0 min
08.03.2013 02:36 21,6 C 7,3 C 5,5 C 73 % 0 % 996 hPa 0,0 l/m 0,0 km/h (0 Bft) 0 min
08.03.2013 02:39 21,6 C 7,2 C 5,4 C 73 % 0 % 996 hPa 0,0 l/m 0,0 km/h (0 Bft) 0 min
08.03.2013 02:42 21,6 C 7,2 C 5,5 C 73 % 0 % 996 hPa 0,0 l/m 0,0 km/h (0 Bft) 0 min
08.03.2013 02:45 21,6 C 7,2 C 5,1 C 74 % 0 % 996 hPa 0,0 l/m 0,0 km/h (0 Bft) 0 min
08.03.2013 02:48 21,6 C 7,2 C 4,9 C 74 % 0 % 996 hPa 0,0 l/m 0,0 km/h (0 Bft) 0 min
08.03.2013 02:51 21,6 C 7,2 C 5,1 C 74 % 0 % 996 hPa 0,0 l/m 0,0 km/h (0 Bft) 0 min
08.03.2013 02:55 21,6 C 7,2 C 5,1 C 74 % 0 % 996 hPa 0,0 l/m 0,0 km/h (0 Bft) 0 min
08.03.2013 02:58 21,6 C 7,1 C 5,1 C 75 % 0 % 996 hPa 0,0 l/m 0,0 km/h (0 Bft) 0 min
08.03.2013 03:01 21,6 C 7,1 C 5,0 C 75 % 0 % 996 hPa 0,0 l/m 0,0 km/h (0 Bft) 0 min
08.03.2013 03:04 21,6 C 7,1 C 5,0 C 75 % 0 % 996 hPa 0,0 l/m 0,0 km/h (0 Bft) 0 min
08.03.2013 03:07 21,6 C 7,1 C 5,0 C 75 % 0 % 996 hPa 0,0 l/m 0,0 km/h (0 Bft) 0 min
08.03.2013 03:10 21,6 C 7,0 C 5,0 C 75 % 0 % 996 hPa 0,0 l/m 0,8 km/h (0 Bft) 0 min
08.03.2013 03:13 21,6 C 6,9 C 5,0 C 75 % 0 % 996 hPa 0,0 l/m 3,1 km/h (1 Bft) 0 min
08.03.2013 03:16 21,6 C 6,9 C 5,0 C 75 % 0 % 996 hPa 0,0 l/m 3,2 km/h (1 Bft) 0 min
08.03.2013 03:19 21,6 C 6,8 C 5,0 C 75 % 0 % 996 hPa 0,0 l/m 0,0 km/h (0 Bft) 0 min
08.03.2013 03:22 21,6 C 6,8 C 5,0 C 75 % 0 % 996 hPa 0,0 l/m 0,0 km/h (0 Bft) 0 min
08.03.2013 03:25 21,6 C 6,7 C 5,0 C 75 % 0 % 996 hPa 0,0 l/m 0,0 km/h (0 Bft) 0 min
08.03.2013 03:28 21,6 C 6,7 C 5,0 C 75 % 0 % 996 hPa 0,0 l/m 0,0 km/h (0 Bft) 0 min
08.03.2013 03:31 21,6 C 6,7 C 5,0 C 76 % 0 % 996 hPa 0,0 l/m 0,0 km/h (0 Bft) 0 min
08.03.2013 03:34 21,6 C 6,7 C 5,0 C 76 % 0 % 996 hPa 0,0 l/m 0,0 km/h (0 Bft) 0 min
08.03.2013 03:37 21,6 C 6,7 C 5,0 C 76 % 0 % 996 hPa 0,0 l/m 0,0 km/h (0 Bft) 0 min
08.03.2013 03:40 21,6 C 6,7 C 5,0 C 76 % 0 % 996 hPa 0,0 l/m 0,0 km/h (0 Bft) 0 min
08.03.2013 03:43 21,6 C 6,7 C 5,0 C 76 % 0 % 996 hPa 0,0 l/m 0,0 km/h (0 Bft) 0 min
08.03.2013 03:46 21,6 C 6,7 C 5,0 C 76 % 0 % 996 hPa 0,0 l/m 0,0 km/h (0 Bft) 0 min
08.03.2013 03:49 21,6 C 6,6 C 4,8 C 76 % 0 % 996 hPa 0,0 l/m 3,9 km/h (1 Bft) 0 min
08.03.2013 03:52 21,6 C 6,6 C 4,8 C 77 % 0 % 996 hPa 0,0 l/m 0,0 km/h (0 Bft) 0 min
08.03.2013 03:55 21,6 C 6,5 C 4,8 C 77 % 0 % 996 hPa 0,0 l/m 0,5 km/h (0 Bft) 0 min
08.03.2013 03:58 21,6 C 6,5 C 4,6 C 77 % 0 % 996 hPa 0,0 l/m 0,9 km/h (0 Bft) 0 min
08.03.2013 04:01 21,6 C 6,5 C 4,6 C 77 % 0 % 996 hPa 0,0 l/m 4,9 km/h (1 Bft) 0 min
08.03.2013 04:04 21,6 C 6,5 C 4,6 C 77 % 0 % 996 hPa 0,0 l/m 1,6 km/h (1 Bft) 0 min
08.03.2013 04:07 21,6 C 6,4 C 4,6 C 78 % 0 % 996 hPa 0,0 l/m 0,0 km/h (0 Bft) 0 min
08.03.2013 04:10 21,6 C 6,4 C 4,8 C 78 % 0 % 996 hPa 0,0 l/m 0,0 km/h (0 Bft) 0 min
08.03.2013 04:13 21,6 C 6,5 C 4,9 C 78 % 0 % 996 hPa 0,0 l/m 0,0 km/h (0 Bft) 0 min
08.03.2013 04:16 21,6 C 6,4 C 4,9 C 78 % 0 % 996 hPa 0,0 l/m 0,0 km/h (0 Bft) 0 min
08.03.2013 04:19 21,6 C 6,5 C 4,7 C 77 % 0 % 996 hPa 0,0 l/m 0,0 km/h (0 Bft) 0 min
08.03.2013 04:22 21,6 C 6,5 C 4,6 C 77 % 0 % 996 hPa 0,0 l/m 0,0 km/h (0 Bft) 0 min
08.03.2013 04:25 21,6 C 6,5 C 4,9 C 77 % 0 % 996 hPa 0,0 l/m 0,0 km/h (0 Bft) 0 min
08.03.2013 04:28 21,6 C 6,5 C 5,2 C 77 % 0 % 996 hPa 0,0 l/m 0,0 km/h (0 Bft) 0 min
08.03.2013 04:31 21,6 C 6,4 C 4,9 C 76 % 0 % 996 hPa 0,0 l/m 0,0 km/h (0 Bft) 0 min
08.03.2013 04:34 21,6 C 6,4 C 4,8 C 76 % 0 % 996 hPa 0,0 l/m 0,0 km/h (0 Bft) 0 min
08.03.2013 04:37 21,6 C 6,4 C 4,8 C 76 % 0 % 996 hPa 0,0 l/m 0,0 km/h (0 Bft) 0 min
08.03.2013 04:40 21,6 C 6,4 C 4,8 C 76 % 0 % 996 hPa 0,0 l/m 0,0 km/h (0 Bft) 0 min
08.03.2013 04:43 21,6 C 6,3 C 4,9 C 77 % 0 % 996 hPa 0,0 l/m 0,0 km/h (0 Bft) 0 min
08.03.2013 04:46 21,6 C 6,3 C 5,1 C 77 % 0 % 996 hPa 0,0 l/m 0,0 km/h (0 Bft) 0 min
08.03.2013 04:49 21,6 C 6,3 C 5,1 C 77 % 0 % 996 hPa 0,0 l/m 0,0 km/h (0 Bft) 0 min
08.03.2013 04:52 21,6 C 6,3 C 5,1 C 77 % 0 % 996 hPa 0,0 l/m 0,0 km/h (0 Bft) 0 min
08.03.2013 04:55 21,6 C 6,3 C 5,1 C 76 % 0 % 996 hPa 0,0 l/m 0,0 km/h (0 Bft) 0 min
08.03.2013 04:58 21,6 C 6,3 C 4,9 C 76 % 0 % 996 hPa 0,0 l/m 0,0 km/h (0 Bft) 0 min
08.03.2013 05:01 21,6 C 6,3 C 4,9 C 76 % 0 % 996 hPa 0,0 l/m 0,0 km/h (0 Bft) 0 min
08.03.2013 05:04 21,6 C 6,3 C 5,2 C 76 % 0 % 996 hPa 0,0 l/m 0,0 km/h (0 Bft) 0 min
08.03.2013 05:07 21,6 C 6,3 C 5,0 C 76 % 0 % 996 hPa 0,0 l/m 0,0 km/h (0 Bft) 0 min
08.03.2013 05:10 21,7 C 6,3 C 4,9 C 76 % 0 % 996 hPa 0,0 l/m 0,0 km/h (0 Bft) 0 min
08.03.2013 05:13 21,6 C 6,2 C 5,0 C 75 % 0 % 996 hPa 0,0 l/m 3,0 km/h (1 Bft) 0 min
08.03.2013 05:16 21,6 C 6,1 C 5,0 C 75 % 0 % 996 hPa 0,0 l/m 3,6 km/h (1 Bft) 0 min
08.03.2013 05:19 21,6 C 6,1 C 4,9 C 76 % 0 % 996 hPa 0,0 l/m 4,6 km/h (1 Bft) 0 min
08.03.2013 05:22 21,6 C 6,1 C 5,0 C 76 % 0 % 996 hPa 0,0 l/m 4,7 km/h (1 Bft) 0 min
08.03.2013 05:25 21,6 C 6,1 C 5,0 C 76 % 0 % 996 hPa 0,0 l/m 5,2 km/h (1 Bft) 0 min
08.03.2013 05:28 21,6 C 5,9 C 4,9 C 78 % 0 % 996 hPa 0,0 l/m 4,6 km/h (1 Bft) 0 min
08.03.2013 05:31 21,6 C 5,8 C 5,0 C 78 % 0 % 996 hPa 0,0 l/m 4,0 km/h (1 Bft) 0 min
08.03.2013 05:34 21,6 C 5,8 C 5,0 C 79 % 0 % 996 hPa 0,0 l/m 4,4 km/h (1 Bft) 0 min
08.03.2013 05:37 21,6 C 5,9 C 5,1 C 79 % 0 % 996 hPa 0,0 l/m 2,4 km/h (1 Bft) 0 min
08.03.2013 05:40 21,6 C 6,0 C 5,1 C 79 % 0 % 996 hPa 0,0 l/m 3,6 km/h (1 Bft) 0 min
08.03.2013 05:43 21,6 C 6,0 C 5,1 C 79 % 0 % 996 hPa 0,0 l/m 3,0 km/h (1 Bft) 0 min
08.03.2013 05:46 21,6 C 6,0 C 5,1 C 79 % 0 % 996 hPa 0,0 l/m 2,8 km/h (1 Bft) 0 min
08.03.2013 05:49 21,6 C 6,0 C 5,1 C 79 % 0 % 996 hPa 0,0 l/m 5,3 km/h (1 Bft) 0 min
08.03.2013 05:52 21,6 C 5,9 C 5,1 C 80 % 0 % 996 hPa 0,0 l/m 5,8 km/h (2 Bft) 0 min
08.03.2013 05:55 21,6 C 5,9 C 5,0 C 80 % 0 % 996 hPa 0,0 l/m 3,4 km/h (1 Bft) 0 min
08.03.2013 05:58 21,6 C 5,8 C 5,0 C 80 % 0 % 996 hPa 0,0 l/m 2,0 km/h (1 Bft) 0 min
08.03.2013 06:01 21,6 C 5,8 C 4,9 C 80 % 0 % 996 hPa 0,0 l/m 2,7 km/h (1 Bft) 0 min
08.03.2013 06:04 21,6 C 5,8 C 4,9 C 80 % 0 % 996 hPa 0,0 l/m 3,1 km/h (1 Bft) 0 min
08.03.2013 06:07 21,7 C 5,9 C 4,9 C 80 % 0 % 996 hPa 0,0 l/m 1,9 km/h (1 Bft) 0 min
08.03.2013 06:10 21,7 C 5,9 C 4,8 C 79 % 0 % 996 hPa 0,0 l/m 3,7 km/h (1 Bft) 0 min
08.03.2013 06:13 21,7 C 5,9 C 4,8 C 80 % 0 % 996 hPa 0,0 l/m 3,3 km/h (1 Bft) 0 min
08.03.2013 06:16 21,6 C 5,8 C 4,8 C 80 % 0 % 996 hPa 0,0 l/m 3,4 km/h (1 Bft) 0 min
08.03.2013 06:19 21,7 C 5,8 C 4,8 C 80 % 0 % 995 hPa 0,0 l/m 2,6 km/h (1 Bft) 0 min
08.03.2013 06:22 21,6 C 5,8 C 4,8 C 80 % 0 % 996 hPa 0,0 l/m 3,4 km/h (1 Bft) 0 min
08.03.2013 06:25 21,6 C 5,8 C 4,7 C 80 % 0 % 995 hPa 0,0 l/m 3,4 km/h (1 Bft) 0 min
08.03.2013 06:28 21,6 C 5,8 C 4,7 C 80 % 0 % 995 hPa 0,0 l/m 0,4 km/h (0 Bft) 0 min
08.03.2013 06:31 21,6 C 5,8 C 4,8 C 80 % 1 % 995 hPa 0,0 l/m 1,0 km/h (0 Bft) 0 min
08.03.2013 06:34 21,6 C 5,8 C 4,8 C 80 % 1 % 995 hPa 0,0 l/m 3,9 km/h (1 Bft) 0 min
08.03.2013 06:37 21,7 C 5,8 C 4,6 C 80 % 1 % 995 hPa 0,0 l/m 1,3 km/h (1 Bft) 0 min
08.03.2013 06:40 21,6 C 5,8 C 4,6 C 80 % 1 % 995 hPa 0,0 l/m 0,5 km/h (0 Bft) 0 min
08.03.2013 06:43 21,6 C 5,8 C 4,5 C 80 % 2 % 995 hPa 0,0 l/m 0,1 km/h (0 Bft) 0 min
08.03.2013 06:46 21,6 C 5,9 C 4,6 C 80 % 2 % 996 hPa 0,0 l/m 0,0 km/h (0 Bft) 3 min
08.03.2013 06:49 21,6 C 5,9 C 4,6 C 80 % 3 % 996 hPa 0,0 l/m 0,0 km/h (0 Bft) 3 min
08.03.2013 06:52 21,6 C 5,9 C 4,6 C 80 % 3 % 996 hPa 0,0 l/m 0,0 km/h (0 Bft) 0 min
08.03.2013 06:55 21,6 C 5,9 C 4,6 C 80 % 4 % 996 hPa 0,0 l/m 0,0 km/h (0 Bft) 0 min
08.03.2013 06:58 21,7 C 5,8 C 4,4 C 80 % 5 % 995 hPa 0,0 l/m 1,2 km/h (1 Bft) 0 min
08.03.2013 07:01 21,7 C 5,8 C 4,2 C 80 % 5 % 995 hPa 0,0 l/m 0,8 km/h (0 Bft) 0 min
08.03.2013 07:04 21,7 C 5,8 C 4,2 C 79 % 5 % 995 hPa 0,0 l/m 2,0 km/h (1 Bft) 0 min
08.03.2013 07:07 21,8 C 5,8 C 4,1 C 80 % 5 % 995 hPa 0,0 l/m 2,0 km/h (1 Bft) 0 min
08.03.2013 07:10 21,8 C 5,8 C 4,1 C 80 % 5 % 995 hPa 0,0 l/m 0,0 km/h (0 Bft) 0 min
08.03.2013 07:13 21,8 C 5,8 C 4,1 C 80 % 5 % 995 hPa 0,0 l/m 2,7 km/h (1 Bft) 0 min
08.03.2013 07:16 21,9 C 5,8 C 3,9 C 80 % 6 % 995 hPa 0,0 l/m 3,4 km/h (1 Bft) 0 min
08.03.2013 07:19 21,9 C 5,8 C 3,9 C 79 % 6 % 995 hPa 0,0 l/m 3,0 km/h (1 Bft) 0 min
08.03.2013 07:22 22,0 C 5,8 C 4,0 C 79 % 7 % 995 hPa 0,0 l/m 3,0 km/h (1 Bft) 0 min
08.03.2013 07:25 22,0 C 5,8 C 3,9 C 80 % 7 % 995 hPa 0,0 l/m 4,2 km/h (1 Bft) 0 min
08.03.2013 07:28 22,0 C 5,8 C 3,7 C 80 % 7 % 996 hPa 0,0 l/m 1,2 km/h (1 Bft) 0 min
08.03.2013 07:31 22,0 C 5,8 C 3,6 C 80 % 8 % 996 hPa 0,0 l/m 0,0 km/h (0 Bft) 0 min
08.03.2013 07:34 22,0 C 5,8 C 3,7 C 80 % 8 % 996 hPa 0,0 l/m 0,0 km/h (0 Bft) 0 min
08.03.2013 07:37 22,0 C 5,8 C 3,8 C 80 % 9 % 996 hPa 0,0 l/m 0,0 km/h (0 Bft) 0 min
08.03.2013 07:40 22,0 C 5,8 C 3,7 C 80 % 10 % 996 hPa 0,0 l/m 0,0 km/h (0 Bft) 0 min
08.03.2013 07:43 22,0 C 5,8 C 4,2 C 80 % 12 % 996 hPa 0,0 l/m 0,4 km/h (0 Bft) 0 min
08.03.2013 07:46 22,1 C 5,9 C 5,5 C 81 % 13 % 996 hPa 0,0 l/m 0,9 km/h (0 Bft) 0 min
08.03.2013 07:49 22,1 C 6,0 C 6,1 C 80 % 13 % 996 hPa 0,0 l/m 1,6 km/h (1 Bft) 0 min
08.03.2013 07:52 22,1 C 6,1 C 6,5 C 80 % 14 % 996 hPa 0,0 l/m 2,3 km/h (1 Bft) 0 min
08.03.2013 07:55 22,1 C 6,2 C 7,2 C 80 % 14 % 996 hPa 0,0 l/m 4,1 km/h (1 Bft) 0 min
08.03.2013 07:58 22,2 C 6,4 C 8,1 C 80 % 14 % 996 hPa 0,0 l/m 2,5 km/h (1 Bft) 0 min
08.03.2013 08:01 22,2 C 6,6 C 9,2 C 79 % 15 % 996 hPa 0,0 l/m 2,5 km/h (1 Bft) 0 min
08.03.2013 08:04 22,2 C 6,7 C 8,5 C 79 % 15 % 996 hPa 0,0 l/m 4,2 km/h (1 Bft) 0 min
08.03.2013 08:07 22,1 C 6,8 C 8,8 C 79 % 15 % 996 hPa 0,0 l/m 4,0 km/h (1 Bft) 0 min
08.03.2013 08:10 22,1 C 6,9 C 8,8 C 79 % 17 % 996 hPa 0,0 l/m 3,9 km/h (1 Bft) 0 min
08.03.2013 08:13 22,1 C 7,0 C 8,4 C 78 % 20 % 996 hPa 0,0 l/m 4,2 km/h (1 Bft) 0 min
08.03.2013 08:16 22,1 C 7,1 C 9,1 C 78 % 24 % 996 hPa 0,0 l/m 4,2 km/h (1 Bft) 0 min
08.03.2013 08:19 22,1 C 7,1 C 8,0 C 78 % 27 % 996 hPa 0,0 l/m 5,0 km/h (1 Bft) 0 min
08.03.2013 08:22 21,9 C 7,2 C 8,3 C 78 % 27 % 996 hPa 0,0 l/m 3,9 km/h (1 Bft) 0 min
08.03.2013 08:25 21,3 C 7,3 C 8,3 C 78 % 26 % 995 hPa 0,0 l/m 5,6 km/h (1 Bft) 0 min
08.03.2013 08:28 21,3 C 7,4 C 8,3 C 78 % 28 % 995 hPa 0,0 l/m 6,5 km/h (2 Bft) 0 min
08.03.2013 08:31 20,2 C 7,5 C 8,6 C 78 % 29 % 995 hPa 0,0 l/m 7,9 km/h (2 Bft) 0 min
08.03.2013 08:34 20,0 C 7,6 C 8,8 C 78 % 28 % 995 hPa 0,0 l/m 8,5 km/h (2 Bft) 0 min
08.03.2013 08:37 20,2 C 7,7 C 9,0 C 78 % 28 % 995 hPa 0,0 l/m 7,4 km/h (2 Bft) 0 min
08.03.2013 08:40 20,4 C 7,7 C 8,7 C 78 % 29 % 995 hPa 0,0 l/m 7,2 km/h (2 Bft) 0 min
08.03.2013 08:43 20,4 C 7,8 C 9,3 C 78 % 29 % 995 hPa 0,0 l/m 5,2 km/h (1 Bft) 0 min
08.03.2013 08:46 20,9 C 7,9 C 9,9 C 78 % 27 % 996 hPa 0,0 l/m 7,4 km/h (2 Bft) 0 min
08.03.2013 08:49 21,2 C 8,0 C 10,5 C 77 % 29 % 996 hPa 0,0 l/m 7,8 km/h (2 Bft) 0 min
08.03.2013 08:52 21,3 C 8,1 C 10,8 C 77 % 31 % 996 hPa 0,0 l/m 7,6 km/h (2 Bft) 0 min
08.03.2013 08:55 21,4 C 8,2 C 11,0 C 77 % 28 % 996 hPa 0,0 l/m 10,2 km/h (2 Bft) 0 min
08.03.2013 08:58 21,5 C 8,2 C 10,8 C 77 % 30 % 996 hPa 0,0 l/m 11,9 km/h (2 Bft) 0 min
08.03.2013 09:01 21,6 C 8,3 C 10,8 C 76 % 29 % 996 hPa 0,0 l/m 7,6 km/h (2 Bft) 0 min
08.03.2013 09:04 21,6 C 8,4 C 10,2 C 76 % 33 % 996 hPa 0,0 l/m 8,8 km/h (2 Bft) 0 min
08.03.2013 09:07 21,6 C 8,6 C 11,1 C 75 % 34 % 996 hPa 0,0 l/m 10,9 km/h (2 Bft) 0 min
08.03.2013 09:10 21,7 C 8,7 C 10,5 C 75 % 33 % 996 hPa 0,0 l/m 12,6 km/h (3 Bft) 0 min
08.03.2013 09:13 21,7 C 8,7 C 11,5 C 75 % 33 % 996 hPa 0,0 l/m 11,5 km/h (2 Bft) 0 min
08.03.2013 09:16 21,8 C 8,8 C 11,8 C 75 % 32 % 996 hPa 0,0 l/m 9,5 km/h (2 Bft) 0 min
08.03.2013 09:19 21,8 C 8,9 C 11,4 C 75 % 30 % 996 hPa 0,0 l/m 7,8 km/h (2 Bft) 0 min
08.03.2013 09:22 21,8 C 8,8 C 11,4 C 74 % 28 % 996 hPa 0,0 l/m 7,8 km/h (2 Bft) 0 min
08.03.2013 09:25 21,8 C 8,8 C 10,5 C 75 % 25 % 996 hPa 0,0 l/m 10,5 km/h (2 Bft) 0 min
08.03.2013 09:28 21,8 C 8,8 C 10,5 C 74 % 25 % 996 hPa 0,0 l/m 10,5 km/h (2 Bft) 0 min
08.03.2013 09:31 21,8 C 8,8 C 10,3 C 75 % 30 % 996 hPa 0,0 l/m 11,3 km/h (2 Bft) 0 min
08.03.2013 09:34 21,8 C 9,0 C 11,2 C 75 % 32 % 996 hPa 0,0 l/m 12,2 km/h (2 Bft) 0 min
08.03.2013 09:37 21,8 C 9,1 C 11,2 C 75 % 34 % 995 hPa 0,0 l/m 12,8 km/h (3 Bft) 0 min
08.03.2013 09:40 21,8 C 9,2 C 11,4 C 75 % 35 % 995 hPa 0,0 l/m 11,3 km/h (2 Bft) 0 min
08.03.2013 09:43 21,9 C 9,4 C 12,4 C 74 % 37 % 995 hPa 0,0 l/m 12,6 km/h (3 Bft) 0 min
08.03.2013 09:46 21,8 C 9,6 C 12,1 C 74 % 38 % 995 hPa 0,0 l/m 11,1 km/h (2 Bft) 0 min
08.03.2013 09:49 21,8 C 9,7 C 12,9 C 74 % 38 % 995 hPa 0,0 l/m 13,8 km/h (3 Bft) 0 min
08.03.2013 09:52 21,8 C 9,8 C 12,9 C 73 % 40 % 995 hPa 0,0 l/m 12,3 km/h (3 Bft) 0 min
08.03.2013 09:55 21,9 C 9,9 C 13,4 C 73 % 41 % 995 hPa 0,0 l/m 12,6 km/h (3 Bft) 0 min
08.03.2013 09:58 21,9 C 10,1 C 13,0 C 73 % 42 % 995 hPa 0,0 l/m 15,8 km/h (3 Bft) 0 min
08.03.2013 10:01 21,9 C 10,1 C 13,2 C 73 % 42 % 995 hPa 0,0 l/m 14,0 km/h (3 Bft) 0 min
08.03.2013 10:04 21,9 C 10,3 C 13,7 C 73 % 42 % 995 hPa 0,0 l/m 15,0 km/h (3 Bft) 0 min
08.03.2013 10:07 22,0 C 10,4 C 13,9 C 72 % 46 % 995 hPa 0,0 l/m 17,6 km/h (3 Bft) 0 min
08.03.2013 10:10 22,0 C 10,4 C 13,4 C 71 % 47 % 995 hPa 0,0 l/m 16,6 km/h (3 Bft) 0 min
08.03.2013 10:13 21,9 C 10,5 C 13,8 C 72 % 47 % 995 hPa 0,0 l/m 17,0 km/h (3 Bft) 0 min
08.03.2013 10:16 22,0 C 10,6 C 14,3 C 71 % 49 % 995 hPa 0,0 l/m 17,2 km/h (3 Bft) 0 min
08.03.2013 10:19 22,0 C 10,7 C 13,8 C 70 % 49 % 995 hPa 0,0 l/m 16,9 km/h (3 Bft) 0 min
08.03.2013 10:22 22,0 C 10,8 C 13,8 C 70 % 50 % 995 hPa 0,0 l/m 17,8 km/h (3 Bft) 0 min
08.03.2013 10:25 22,0 C 10,9 C 13,9 C 70 % 51 % 995 hPa 0,0 l/m 12,8 km/h (3 Bft) 0 min
08.03.2013 10:28 22,0 C 10,9 C 13,9 C 70 % 51 % 995 hPa 0,0 l/m 20,0 km/h (4 Bft) 0 min
08.03.2013 10:31 22,0 C 10,9 C 13,9 C 69 % 53 % 995 hPa 0,0 l/m 19,5 km/h (3 Bft) 0 min
08.03.2013 10:34 22,0 C 10,9 C 14,4 C 69 % 54 % 995 hPa 0,0 l/m 18,3 km/h (3 Bft) 3 min
08.03.2013 10:37 22,0 C 11,2 C 14,6 C 70 % 56 % 995 hPa 0,0 l/m 18,7 km/h (3 Bft) 3 min
08.03.2013 10:40 22,0 C 11,4 C 14,6 C 69 % 59 % 995 hPa 0,0 l/m 12,9 km/h (3 Bft) 3 min
08.03.2013 10:43 22,1 C 11,5 C 14,7 C 69 % 61 % 995 hPa 0,0 l/m 16,5 km/h (3 Bft) 3 min
08.03.2013 10:46 22,1 C 11,5 C 15,0 C 69 % 63 % 995 hPa 0,0 l/m 14,8 km/h (3 Bft) 3 min
08.03.2013 10:49 22,1 C 11,5 C 15,3 C 69 % 64 % 995 hPa 0,0 l/m 14,1 km/h (3 Bft) 3 min
08.03.2013 10:52 22,1 C 11,8 C 15,3 C 68 % 65 % 995 hPa 0,0 l/m 14,6 km/h (3 Bft) 3 min
08.03.2013 10:55 22,1 C 11,8 C 15,2 C 67 % 67 % 995 hPa 0,0 l/m 15,1 km/h (3 Bft) 3 min
08.03.2013 10:58 22,1 C 11,8 C 15,2 C 67 % 67 % 995 hPa 0,0 l/m 17,3 km/h (3 Bft) 3 min
08.03.2013 11:01 22,1 C 11,9 C 15,9 C 67 % 69 % 995 hPa 0,0 l/m 14,4 km/h (3 Bft) 3 min
08.03.2013 11:04 22,1 C 12,1 C 15,8 C 68 % 70 % 995 hPa 0,0 l/m 14,8 km/h (3 Bft) 3 min
08.03.2013 11:07 22,1 C 12,2 C 15,8 C 67 % 74 % 995 hPa 0,0 l/m 9,5 km/h (2 Bft) 3 min
08.03.2013 11:10 22,1 C 12,2 C 15,9 C 66 % 78 % 995 hPa 0,0 l/m 14,0 km/h (3 Bft) 3 min
08.03.2013 11:13 22,1 C 12,2 C 15,8 C 67 % 81 % 995 hPa 0,0 l/m 17,5 km/h (3 Bft) 3 min
08.03.2013 11:16 22,1 C 12,3 C 16,3 C 67 % 85 % 995 hPa 0,0 l/m 14,5 km/h (3 Bft) 3 min
08.03.2013 11:19 22,1 C 12,3 C 16,3 C 67 % 86 % 995 hPa 0,0 l/m 17,1 km/h (3 Bft) 3 min
08.03.2013 11:22 22,1 C 12,5 C 16,8 C 66 % 89 % 995 hPa 0,0 l/m 11,3 km/h (2 Bft) 3 min
08.03.2013 11:25 22,1 C 12,5 C 16,6 C 66 % 90 % 995 hPa 0,0 l/m 14,6 km/h (3 Bft) 3 min
08.03.2013 11:28 22,0 C 12,6 C 16,7 C 66 % 91 % 995 hPa 0,0 l/m 13,8 km/h (3 Bft) 3 min
08.03.2013 11:31 22,1 C 12,6 C 16,6 C 65 % 93 % 995 hPa 0,0 l/m 11,1 km/h (2 Bft) 3 min
08.03.2013 11:34 22,1 C 12,7 C 16,6 C 65 % 95 % 995 hPa 0,0 l/m 11,1 km/h (2 Bft) 3 min
08.03.2013 11:37 22,1 C 12,9 C 16,7 C 65 % 96 % 995 hPa 0,0 l/m 10,1 km/h (2 Bft) 3 min
08.03.2013 11:40 22,1 C 12,9 C 16,5 C 64 % 96 % 995 hPa 0,0 l/m 9,4 km/h (2 Bft) 3 min
08.03.2013 11:43 22,1 C 12,9 C 17,4 C 64 % 99 % 995 hPa 0,0 l/m 5,7 km/h (1 Bft) 3 min
08.03.2013 11:46 22,2 C 13,1 C 17,2 C 64 % 100 % 995 hPa 0,0 l/m 8,9 km/h (2 Bft) 3 min
08.03.2013 11:49 22,2 C 13,2 C 18,0 C 64 % 100 % 995 hPa 0,0 l/m 10,0 km/h (2 Bft) 3 min
08.03.2013 11:52 22,2 C 13,4 C 17,9 C 64 % 100 % 995 hPa 0,0 l/m 10,3 km/h (2 Bft) 3 min
08.03.2013 11:55 22,2 C 13,4 C 17,9 C 63 % 100 % 995 hPa 0,0 l/m 9,2 km/h (2 Bft) 3 min
08.03.2013 11:58 22,2 C 13,4 C 17,5 C 63 % 100 % 995 hPa 0,0 l/m 9,9 km/h (2 Bft) 3 min
08.03.2013 12:01 22,2 C 13,5 C 17,8 C 63 % 100 % 994 hPa 0,0 l/m 12,6 km/h (3 Bft) 3 min
08.03.2013 12:04 22,1 C 13,6 C 18,3 C 62 % 100 % 994 hPa 0,0 l/m 12,6 km/h (3 Bft) 3 min
08.03.2013 12:07 22,2 C 13,7 C 17,7 C 61 % 100 % 994 hPa 0,0 l/m 10,3 km/h (2 Bft) 3 min
08.03.2013 12:10 22,2 C 13,8 C 18,0 C 61 % 100 % 994 hPa 0,0 l/m 10,2 km/h (2 Bft) 3 min
08.03.2013 12:13 22,1 C 13,9 C 19,0 C 61 % 100 % 994 hPa 0,0 l/m 10,9 km/h (2 Bft) 3 min
08.03.2013 12:16 22,1 C 13,9 C 18,2 C 61 % 100 % 994 hPa 0,0 l/m 8,3 km/h (2 Bft) 3 min
08.03.2013 12:19 22,1 C 13,9 C 18,5 C 61 % 100 % 994 hPa 0,0 l/m 11,5 km/h (2 Bft) 3 min
08.03.2013 12:22 22,1 C 14,0 C 18,4 C 61 % 100 % 994 hPa 0,0 l/m 7,4 km/h (2 Bft) 3 min
08.03.2013 12:25 22,1 C 14,2 C 18,9 C 61 % 100 % 994 hPa 0,0 l/m 6,4 km/h (2 Bft) 3 min
08.03.2013 12:28 22,1 C 14,3 C 18,7 C 60 % 100 % 994 hPa 0,0 l/m 8,3 km/h (2 Bft) 3 min
08.03.2013 12:31 22,1 C 14,3 C 18,8 C 60 % 100 % 994 hPa 0,0 l/m 11,5 km/h (2 Bft) 3 min
08.03.2013 12:34 22,0 C 14,3 C 18,9 C 60 % 100 % 994 hPa 0,0 l/m 10,1 km/h (2 Bft) 3 min
08.03.2013 12:37 22,0 C 14,4 C 18,9 C 61 % 100 % 994 hPa 0,0 l/m 11,0 km/h (2 Bft) 3 min
08.03.2013 12:40 22,0 C 14,5 C 19,5 C 59 % 100 % 994 hPa 0,0 l/m 11,0 km/h (2 Bft) 3 min
08.03.2013 12:43 22,0 C 14,5 C 19,2 C 59 % 100 % 994 hPa 0,0 l/m 9,8 km/h (2 Bft) 3 min
08.03.2013 12:46 22,1 C 14,7 C 18,8 C 58 % 100 % 994 hPa 0,0 l/m 8,7 km/h (2 Bft) 3 min
08.03.2013 12:49 22,0 C 14,8 C 19,2 C 58 % 100 % 994 hPa 0,0 l/m 5,7 km/h (1 Bft) 3 min
08.03.2013 12:52 22,0 C 14,9 C 19,0 C 58 % 100 % 994 hPa 0,0 l/m 6,7 km/h (2 Bft) 3 min
08.03.2013 12:55 22,0 C 14,9 C 19,7 C 57 % 100 % 994 hPa 0,0 l/m 10,6 km/h (2 Bft) 3 min
08.03.2013 12:58 22,0 C 14,9 C 19,5 C 58 % 100 % 994 hPa 0,0 l/m 11,3 km/h (2 Bft) 3 min
08.03.2013 13:01 22,0 C 15,0 C 19,7 C 57 % 100 % 994 hPa 0,0 l/m 7,6 km/h (2 Bft) 3 min
08.03.2013 13:04 22,0 C 15,0 C 19,4 C 56 % 100 % 994 hPa 0,0 l/m 9,0 km/h (2 Bft) 3 min
08.03.2013 13:07 22,0 C 15,2 C 19,4 C 56 % 100 % 994 hPa 0,0 l/m 9,5 km/h (2 Bft) 3 min
08.03.2013 13:10 22,0 C 15,3 C 20,0 C 56 % 100 % 994 hPa 0,0 l/m 12,5 km/h (3 Bft) 3 min
08.03.2013 13:13 22,0 C 15,3 C 19,8 C 57 % 100 % 994 hPa 0,0 l/m 10,3 km/h (2 Bft) 3 min
08.03.2013 13:16 22,0 C 15,3 C 20,0 C 56 % 100 % 994 hPa 0,0 l/m 12,5 km/h (3 Bft) 3 min
08.03.2013 13:19 22,0 C 15,4 C 19,7 C 55 % 100 % 994 hPa 0,0 l/m 7,0 km/h (2 Bft) 3 min
08.03.2013 13:22 22,0 C 15,4 C 20,0 C 55 % 100 % 994 hPa 0,0 l/m 7,3 km/h (2 Bft) 3 min
08.03.2013 13:25 22,1 C 15,5 C 19,9 C 55 % 100 % 994 hPa 0,0 l/m 8,6 km/h (2 Bft) 3 min
08.03.2013 13:28 22,0 C 15,5 C 19,7 C 54 % 100 % 994 hPa 0,0 l/m 10,1 km/h (2 Bft) 3 min
08.03.2013 13:31 22,0 C 15,5 C 19,3 C 54 % 100 % 994 hPa 0,0 l/m 8,2 km/h (2 Bft) 3 min
08.03.2013 13:34 22,0 C 15,5 C 20,0 C 54 % 100 % 994 hPa 0,0 l/m 9,6 km/h (2 Bft) 3 min
08.03.2013 13:37 22,1 C 15,7 C 20,2 C 53 % 100 % 994 hPa 0,0 l/m 15,0 km/h (3 Bft) 3 min
08.03.2013 13:40 22,0 C 15,7 C 20,2 C 54 % 100 % 994 hPa 0,0 l/m 13,0 km/h (3 Bft) 3 min
08.03.2013 13:43 22,0 C 15,8 C 20,2 C 53 % 100 % 994 hPa 0,0 l/m 9,5 km/h (2 Bft) 3 min
08.03.2013 13:46 22,0 C 15,8 C 19,8 C 53 % 100 % 994 hPa 0,0 l/m 13,0 km/h (3 Bft) 3 min
08.03.2013 13:49 22,1 C 15,8 C 20,1 C 53 % 100 % 994 hPa 0,0 l/m 12,8 km/h (3 Bft) 3 min
08.03.2013 13:52 22,1 C 15,9 C 20,6 C 52 % 100 % 994 hPa 0,0 l/m 9,9 km/h (2 Bft) 3 min
08.03.2013 13:55 22,1 C 15,9 C 20,3 C 52 % 100 % 994 hPa 0,0 l/m 9,9 km/h (2 Bft) 3 min
08.03.2013 13:58 22,1 C 16,0 C 19,9 C 51 % 100 % 994 hPa 0,0 l/m 10,1 km/h (2 Bft) 3 min
08.03.2013 14:01 22,2 C 16,0 C 20,2 C 50 % 100 % 994 hPa 0,0 l/m 9,6 km/h (2 Bft) 3 min
08.03.2013 14:04 22,2 C 16,0 C 19,7 C 50 % 100 % 993 hPa 0,0 l/m 9,2 km/h (2 Bft) 3 min
08.03.2013 14:07 22,2 C 16,0 C 19,8 C 50 % 100 % 993 hPa 0,0 l/m 6,6 km/h (2 Bft) 3 min
08.03.2013 14:10 22,2 C 16,1 C 19,4 C 50 % 100 % 993 hPa 0,0 l/m 8,2 km/h (2 Bft) 3 min
08.03.2013 14:13 22,1 C 16,1 C 19,5 C 50 % 100 % 993 hPa 0,0 l/m 8,2 km/h (2 Bft) 3 min
08.03.2013 14:16 22,2 C 16,1 C 19,4 C 50 % 100 % 994 hPa 0,0 l/m 6,8 km/h (2 Bft) 3 min
08.03.2013 14:19 22,1 C 16,2 C 19,4 C 50 % 100 % 994 hPa 0,0 l/m 6,8 km/h (2 Bft) 3 min
08.03.2013 14:22 22,1 C 16,3 C 19,1 C 50 % 100 % 994 hPa 0,0 l/m 11,2 km/h (2 Bft) 3 min
08.03.2013 14:25 22,1 C 16,3 C 19,1 C 49 % 100 % 993 hPa 0,0 l/m 10,5 km/h (2 Bft) 3 min
08.03.2013 14:28 22,1 C 16,3 C 18,4 C 50 % 100 % 993 hPa 0,0 l/m 9,1 km/h (2 Bft) 3 min
08.03.2013 14:31 22,1 C 16,3 C 18,1 C 49 % 100 % 993 hPa 0,0 l/m 15,3 km/h (3 Bft) 3 min
08.03.2013 14:34 22,1 C 16,2 C 18,0 C 49 % 100 % 993 hPa 0,0 l/m 8,3 km/h (2 Bft) 3 min
08.03.2013 14:37 22,0 C 16,3 C 17,9 C 49 % 100 % 993 hPa 0,0 l/m 10,6 km/h (2 Bft) 3 min
08.03.2013 14:40 22,0 C 16,3 C 17,8 C 49 % 100 % 993 hPa 0,0 l/m 7,4 km/h (2 Bft) 3 min
08.03.2013 14:43 22,0 C 16,3 C 17,4 C 50 % 100 % 993 hPa 0,0 l/m 15,3 km/h (3 Bft) 3 min
08.03.2013 14:46 22,0 C 16,3 C 17,4 C 48 % 100 % 993 hPa 0,0 l/m 12,3 km/h (3 Bft) 3 min
08.03.2013 14:49 22,0 C 16,3 C 17,6 C 48 % 100 % 993 hPa 0,0 l/m 12,8 km/h (3 Bft) 3 min
08.03.2013 14:52 22,0 C 16,3 C 17,5 C 48 % 100 % 993 hPa 0,0 l/m 9,6 km/h (2 Bft) 3 min
08.03.2013 14:55 22,0 C 16,3 C 17,4 C 48 % 100 % 993 hPa 0,0 l/m 10,5 km/h (2 Bft) 3 min
08.03.2013 14:58 21,9 C 16,3 C 17,1 C 48 % 100 % 993 hPa 0,0 l/m 14,3 km/h (3 Bft) 3 min
08.03.2013 15:01 22,0 C 16,2 C 16,7 C 48 % 100 % 993 hPa 0,0 l/m 13,7 km/h (3 Bft) 3 min
08.03.2013 15:04 22,0 C 16,2 C 16,4 C 48 % 100 % 993 hPa 0,0 l/m 13,7 km/h (3 Bft) 3 min
08.03.2013 15:07 22,0 C 16,2 C 16,4 C 48 % 100 % 993 hPa 0,0 l/m 9,4 km/h (2 Bft) 3 min
08.03.2013 15:10 22,0 C 16,3 C 16,4 C 48 % 100 % 993 hPa 0,0 l/m 13,4 km/h (3 Bft) 3 min
08.03.2013 15:13 22,0 C 16,3 C 16,3 C 48 % 100 % 993 hPa 0,0 l/m 8,8 km/h (2 Bft) 3 min
08.03.2013 15:16 22,0 C 16,3 C 16,2 C 48 % 100 % 993 hPa 0,0 l/m 10,0 km/h (2 Bft) 3 min
08.03.2013 15:19 22,0 C 16,3 C 16,1 C 48 % 100 % 993 hPa 0,0 l/m 14,0 km/h (3 Bft) 3 min
08.03.2013 15:22 22,0 C 16,3 C 16,2 C 47 % 100 % 993 hPa 0,0 l/m 14,0 km/h (3 Bft) 3 min
08.03.2013 15:25 22,0 C 16,2 C 16,2 C 47 % 100 % 993 hPa 0,0 l/m 8,3 km/h (2 Bft) 3 min
08.03.2013 15:28 22,1 C 16,2 C 16,1 C 47 % 100 % 993 hPa 0,0 l/m 14,3 km/h (3 Bft) 3 min
08.03.2013 15:31 22,1 C 16,1 C 16,2 C 47 % 100 % 993 hPa 0,0 l/m 7,9 km/h (2 Bft) 3 min
08.03.2013 15:34 22,1 C 16,1 C 15,9 C 47 % 100 % 993 hPa 0,0 l/m 12,0 km/h (2 Bft) 3 min
08.03.2013 15:37 22,1 C 16,1 C 16,0 C 47 % 100 % 993 hPa 0,0 l/m 8,7 km/h (2 Bft) 3 min
08.03.2013 15:40 22,1 C 16,1 C 16,2 C 47 % 100 % 993 hPa 0,0 l/m 9,0 km/h (2 Bft) 3 min
08.03.2013 15:43 22,1 C 16,1 C 16,3 C 47 % 98 % 993 hPa 0,0 l/m 10,8 km/h (2 Bft) 3 min
08.03.2013 15:46 22,2 C 16,1 C 16,3 C 46 % 96 % 993 hPa 0,0 l/m 10,8 km/h (2 Bft) 3 min
08.03.2013 15:49 22,1 C 16,0 C 16,4 C 46 % 92 % 993 hPa 0,0 l/m 10,0 km/h (2 Bft) 3 min
08.03.2013 15:52 22,1 C 16,0 C 16,3 C 47 % 92 % 993 hPa 0,0 l/m 10,6 km/h (2 Bft) 3 min
08.03.2013 15:55 22,1 C 16,0 C 16,1 C 47 % 80 % 993 hPa 0,0 l/m 7,7 km/h (2 Bft) 3 min
08.03.2013 15:58 22,1 C 16,0 C 15,8 C 47 % 74 % 993 hPa 0,0 l/m 9,6 km/h (2 Bft) 3 min
08.03.2013 16:01 22,1 C 16,0 C 16,2 C 47 % 69 % 993 hPa 0,0 l/m 8,9 km/h (2 Bft) 3 min
08.03.2013 16:04 22,0 C 16,0 C 16,2 C 47 % 65 % 993 hPa 0,0 l/m 9,4 km/h (2 Bft) 3 min
08.03.2013 16:07 22,0 C 15,9 C 16,2 C 47 % 61 % 993 hPa 0,0 l/m 9,4 km/h (2 Bft) 3 min
08.03.2013 16:10 22,0 C 15,9 C 16,4 C 47 % 58 % 993 hPa 0,0 l/m 9,1 km/h (2 Bft) 3 min
08.03.2013 16:13 22,0 C 15,9 C 16,9 C 47 % 54 % 993 hPa 0,0 l/m 7,4 km/h (2 Bft) 3 min
08.03.2013 16:16 21,8 C 15,9 C 16,4 C 47 % 52 % 993 hPa 0,0 l/m 8,2 km/h (2 Bft) 3 min
08.03.2013 16:19 21,6 C 15,9 C 16,5 C 47 % 48 % 993 hPa 0,0 l/m 8,6 km/h (2 Bft) 3 min
08.03.2013 16:22 21,4 C 15,9 C 16,9 C 47 % 47 % 993 hPa 0,0 l/m 9,2 km/h (2 Bft) 3 min
08.03.2013 16:25 21,2 C 15,8 C 16,9 C 47 % 46 % 993 hPa 0,0 l/m 7,6 km/h (2 Bft) 3 min
08.03.2013 16:28 21,1 C 15,8 C 16,9 C 47 % 42 % 993 hPa 0,0 l/m 9,3 km/h (2 Bft) 3 min
08.03.2013 16:31 21,2 C 15,8 C 16,8 C 47 % 42 % 993 hPa 0,0 l/m 7,9 km/h (2 Bft) 3 min
08.03.2013 16:34 21,3 C 15,8 C 16,9 C 47 % 40 % 993 hPa 0,0 l/m 10,1 km/h (2 Bft) 3 min
08.03.2013 16:37 21,4 C 15,8 C 17,2 C 47 % 37 % 993 hPa 0,0 l/m 7,0 km/h (2 Bft) 3 min
08.03.2013 16:40 21,6 C 15,7 C 17,3 C 47 % 37 % 993 hPa 0,0 l/m 6,8 km/h (2 Bft) 3 min
08.03.2013 16:43 21,6 C 15,7 C 17,1 C 48 % 35 % 993 hPa 0,0 l/m 4,8 km/h (1 Bft) 3 min
08.03.2013 16:46 21,6 C 15,7 C 16,6 C 48 % 32 % 993 hPa 0,0 l/m 7,5 km/h (2 Bft) 3 min
08.03.2013 16:49 21,8 C 15,7 C 16,3 C 48 % 32 % 993 hPa 0,0 l/m 7,3 km/h (2 Bft) 3 min
08.03.2013 16:52 21,8 C 15,6 C 16,1 C 49 % 28 % 993 hPa 0,0 l/m 4,5 km/h (1 Bft) 3 min
08.03.2013 16:55 21,8 C 15,6 C 15,6 C 49 % 26 % 993 hPa 0,0 l/m 4,5 km/h (1 Bft) 3 min
08.03.2013 16:58 21,8 C 15,6 C 15,6 C 49 % 26 % 993 hPa 0,0 l/m 7,8 km/h (2 Bft) 3 min
08.03.2013 17:01 21,8 C 15,5 C 15,6 C 50 % 25 % 993 hPa 0,0 l/m 6,3 km/h (2 Bft) 3 min
08.03.2013 17:04 21,8 C 15,4 C 15,4 C 50 % 23 % 993 hPa 0,0 l/m 4,9 km/h (1 Bft) 3 min
08.03.2013 17:07 21,9 C 15,4 C 15,2 C 51 % 23 % 993 hPa 0,0 l/m 7,2 km/h (2 Bft) 3 min
08.03.2013 17:10 21,9 C 15,3 C 14,8 C 51 % 21 % 993 hPa 0,0 l/m 12,0 km/h (2 Bft) 3 min
08.03.2013 17:13 22,0 C 15,3 C 14,6 C 51 % 20 % 993 hPa 0,0 l/m 6,8 km/h (2 Bft) 3 min
08.03.2013 17:16 22,0 C 15,2 C 14,4 C 52 % 18 % 993 hPa 0,0 l/m 4,3 km/h (1 Bft) 3 min
08.03.2013 17:19 21,9 C 15,2 C 14,2 C 52 % 17 % 993 hPa 0,0 l/m 10,2 km/h (2 Bft) 3 min
08.03.2013 17:22 22,0 C 15,1 C 14,1 C 53 % 17 % 993 hPa 0,0 l/m 12,2 km/h (2 Bft) 3 min
08.03.2013 17:25 22,0 C 15,0 C 13,8 C 54 % 15 % 993 hPa 0,0 l/m 8,0 km/h (2 Bft) 3 min
08.03.2013 17:28 22,0 C 14,9 C 13,3 C 54 % 13 % 993 hPa 0,0 l/m 10,1 km/h (2 Bft) 3 min
08.03.2013 17:31 22,0 C 14,8 C 13,3 C 56 % 11 % 993 hPa 0,0 l/m 11,4 km/h (2 Bft) 3 min
08.03.2013 17:34 22,0 C 14,7 C 12,7 C 57 % 9 % 993 hPa 0,0 l/m 15,5 km/h (3 Bft) 3 min
08.03.2013 17:37 21,9 C 14,6 C 12,6 C 58 % 8 % 993 hPa 0,0 l/m 14,5 km/h (3 Bft) 3 min
08.03.2013 17:40 21,9 C 14,5 C 12,4 C 59 % 6 % 993 hPa 0,0 l/m 14,7 km/h (3 Bft) 3 min
08.03.2013 17:43 22,0 C 14,3 C 12,2 C 61 % 5 % 993 hPa 0,0 l/m 15,5 km/h (3 Bft) 3 min
08.03.2013 17:46 22,0 C 14,1 C 11,9 C 63 % 4 % 993 hPa 0,0 l/m 16,6 km/h (3 Bft) 3 min
08.03.2013 17:49 22,0 C 13,9 C 11,9 C 64 % 3 % 993 hPa 0,0 l/m 20,9 km/h (4 Bft) 3 min
08.03.2013 17:52 22,1 C 13,7 C 11,9 C 64 % 3 % 994 hPa 0,0 l/m 21,0 km/h (4 Bft) 0 min
08.03.2013 17:55 22,0 C 13,5 C 11,6 C 65 % 2 % 994 hPa 0,0 l/m 24,8 km/h (4 Bft) 0 min
08.03.2013 17:58 22,1 C 13,3 C 11,6 C 66 % 2 % 994 hPa 0,0 l/m 20,7 km/h (4 Bft) 0 min
08.03.2013 18:01 22,1 C 13,2 C 11,5 C 67 % 1 % 994 hPa 0,0 l/m 17,1 km/h (3 Bft) 0 min
08.03.2013 18:04 22,0 C 13,0 C 11,0 C 67 % 1 % 994 hPa 0,0 l/m 16,0 km/h (3 Bft) 0 min
08.03.2013 18:07 22,0 C 12,9 C 11,1 C 68 % 1 % 994 hPa 0,0 l/m 19,8 km/h (3 Bft) 0 min
08.03.2013 18:10 22,0 C 12,7 C 10,9 C 68 % 1 % 994 hPa 0,0 l/m 21,6 km/h (4 Bft) 0 min
08.03.2013 18:13 22,0 C 12,6 C 10,8 C 68 % 0 % 994 hPa 0,0 l/m 18,4 km/h (3 Bft) 0 min
08.03.2013 18:16 22,0 C 12,4 C 10,7 C 68 % 0 % 994 hPa 0,0 l/m 20,3 km/h (4 Bft) 0 min
08.03.2013 18:19 22,0 C 12,3 C 10,5 C 69 % 0 % 994 hPa 0,0 l/m 19,6 km/h (3 Bft) 0 min
08.03.2013 18:22 22,0 C 12,1 C 10,5 C 69 % 0 % 994 hPa 0,0 l/m 24,0 km/h (4 Bft) 0 min
08.03.2013 18:25 22,0 C 12,1 C 10,3 C 69 % 0 % 994 hPa 0,0 l/m 18,1 km/h (3 Bft) 0 min
08.03.2013 18:28 22,1 C 12,0 C 10,2 C 70 % 0 % 994 hPa 0,0 l/m 22,6 km/h (4 Bft) 0 min
08.03.2013 18:31 22,1 C 12,0 C 10,2 C 70 % 0 % 994 hPa 0,0 l/m 20,0 km/h (4 Bft) 0 min
08.03.2013 18:34 22,1 C 11,8 C 10,0 C 71 % 0 % 994 hPa 0,0 l/m 15,8 km/h (3 Bft) 0 min
08.03.2013 18:37 22,2 C 11,7 C 9,7 C 71 % 0 % 994 hPa 0,0 l/m 17,8 km/h (3 Bft) 0 min
08.03.2013 18:40 22,2 C 11,6 C 9,7 C 71 % 0 % 994 hPa 0,0 l/m 12,6 km/h (3 Bft) 0 min
08.03.2013 18:43 22,2 C 11,5 C 9,6 C 72 % 0 % 994 hPa 0,0 l/m 14,0 km/h (3 Bft) 0 min
08.03.2013 18:46 22,2 C 11,5 C 9,5 C 72 % 0 % 994 hPa 0,0 l/m 14,3 km/h (3 Bft) 0 min
08.03.2013 18:49 22,1 C 11,4 C 9,3 C 72 % 0 % 995 hPa 0,0 l/m 18,0 km/h (3 Bft) 0 min
08.03.2013 18:52 22,1 C 11,3 C 9,4 C 72 % 0 % 995 hPa 0,0 l/m 15,3 km/h (3 Bft) 0 min
08.03.2013 18:55 22,1 C 11,3 C 9,5 C 72 % 0 % 995 hPa 0,0 l/m 13,3 km/h (3 Bft) 0 min
08.03.2013 18:58 22,1 C 11,3 C 9,4 C 72 % 0 % 995 hPa 0,0 l/m 13,7 km/h (3 Bft) 0 min
08.03.2013 19:01 22,1 C 11,2 C 9,1 C 72 % 0 % 995 hPa 0,0 l/m 13,5 km/h (3 Bft) 0 min
08.03.2013 19:04 22,1 C 11,1 C 9,1 C 71 % 0 % 995 hPa 0,0 l/m 12,5 km/h (3 Bft) 0 min
08.03.2013 19:07 22,0 C 11,0 C 9,0 C 71 % 0 % 995 hPa 0,0 l/m 12,0 km/h (2 Bft) 0 min
08.03.2013 19:10 22,0 C 10,9 C 8,8 C 71 % 0 % 995 hPa 0,0 l/m 11,3 km/h (2 Bft) 0 min
08.03.2013 19:13 22,0 C 10,9 C 8,8 C 71 % 0 % 995 hPa 0,0 l/m 17,0 km/h (3 Bft) 0 min
08.03.2013 19:16 22,0 C 10,7 C 8,7 C 70 % 0 % 995 hPa 0,0 l/m 13,6 km/h (3 Bft) 0 min
08.03.2013 19:19 22,0 C 10,6 C 8,7 C 70 % 0 % 995 hPa 0,0 l/m 13,1 km/h (3 Bft) 0 min
08.03.2013 19:22 22,0 C 10,6 C 8,7 C 70 % 0 % 995 hPa 0,0 l/m 13,1 km/h (3 Bft) 0 min
08.03.2013 19:25 22,0 C 10,5 C 8,5 C 70 % 0 % 995 hPa 0,0 l/m 9,7 km/h (2 Bft) 0 min
08.03.2013 19:28 22,0 C 10,5 C 8,4 C 70 % 0 % 995 hPa 0,0 l/m 10,3 km/h (2 Bft) 0 min
08.03.2013 19:31 22,0 C 10,4 C 8,6 C 71 % 0 % 995 hPa 0,0 l/m 11,5 km/h (2 Bft) 0 min
08.03.2013 19:34 22,0 C 10,4 C 8,2 C 71 % 0 % 995 hPa 0,0 l/m 10,3 km/h (2 Bft) 0 min
08.03.2013 19:37 22,0 C 10,3 C 8,2 C 71 % 0 % 995 hPa 0,0 l/m 12,3 km/h (3 Bft) 0 min
08.03.2013 19:40 22,0 C 10,2 C 8,2 C 71 % 0 % 995 hPa 0,0 l/m 7,8 km/h (2 Bft) 0 min
08.03.2013 19:43 22,0 C 10,2 C 7,9 C 71 % 0 % 995 hPa 0,0 l/m 10,6 km/h (2 Bft) 0 min
08.03.2013 19:46 22,0 C 10,0 C 7,7 C 71 % 0 % 995 hPa 0,0 l/m 9,5 km/h (2 Bft) 0 min
08.03.2013 19:49 22,0 C 9,9 C 7,8 C 72 % 0 % 995 hPa 0,0 l/m 9,1 km/h (2 Bft) 0 min
08.03.2013 19:52 22,0 C 9,8 C 7,7 C 72 % 0 % 995 hPa 0,0 l/m 7,8 km/h (2 Bft) 0 min
08.03.2013 19:55 22,0 C 9,8 C 7,6 C 72 % 0 % 995 hPa 0,0 l/m 6,3 km/h (2 Bft) 0 min
08.03.2013 19:58 22,0 C 9,7 C 7,4 C 72 % 0 % 995 hPa 0,0 l/m 4,8 km/h (1 Bft) 0 min
08.03.2013 20:01 22,0 C 9,6 C 7,3 C 72 % 0 % 995 hPa 0,0 l/m 7,8 km/h (2 Bft) 0 min
08.03.2013 20:04 22,0 C 9,6 C 7,2 C 72 % 0 % 995 hPa 0,0 l/m 1,9 km/h (1 Bft) 0 min
08.03.2013 20:07 22,0 C 9,6 C 7,0 C 72 % 0 % 995 hPa 0,0 l/m 5,0 km/h (1 Bft) 0 min
08.03.2013 20:10 22,0 C 9,5 C 7,3 C 72 % 0 % 995 hPa 0,0 l/m 8,1 km/h (2 Bft) 0 min
08.03.2013 20:13 22,0 C 9,4 C 7,1 C 72 % 0 % 995 hPa 0,0 l/m 6,9 km/h (2 Bft) 0 min
08.03.2013 20:16 22,0 C 9,4 C 7,1 C 72 % 0 % 995 hPa 0,0 l/m 8,9 km/h (2 Bft) 0 min
08.03.2013 20:19 22,0 C 9,3 C 6,9 C 72 % 0 % 995 hPa 0,0 l/m 6,3 km/h (2 Bft) 0 min
08.03.2013 20:22 22,0 C 9,2 C 6,9 C 73 % 0 % 996 hPa 0,0 l/m 8,1 km/h (2 Bft) 0 min
08.03.2013 20:25 22,0 C 9,2 C 6,8 C 73 % 0 % 996 hPa 0,0 l/m 7,4 km/h (2 Bft) 0 min
08.03.2013 20:28 22,0 C 9,1 C 6,8 C 73 % 0 % 996 hPa 0,0 l/m 9,8 km/h (2 Bft) 0 min
08.03.2013 20:31 22,0 C 9,1 C 7,0 C 73 % 0 % 996 hPa 0,0 l/m 7,4 km/h (2 Bft) 0 min
08.03.2013 20:34 22,0 C 9,0 C 6,8 C 73 % 0 % 996 hPa 0,0 l/m 6,1 km/h (2 Bft) 0 min
08.03.2013 20:37 22,0 C 9,0 C 6,8 C 73 % 0 % 996 hPa 0,0 l/m 8,9 km/h (2 Bft) 0 min
08.03.2013 20:40 22,0 C 9,0 C 6,7 C 74 % 0 % 996 hPa 0,0 l/m 7,4 km/h (2 Bft) 0 min
08.03.2013 20:43 22,0 C 8,9 C 6,6 C 74 % 0 % 996 hPa 0,0 l/m 6,9 km/h (2 Bft) 0 min
08.03.2013 20:46 22,0 C 8,8 C 6,5 C 73 % 0 % 996 hPa 0,0 l/m 9,2 km/h (2 Bft) 0 min
08.03.2013 20:49 22,0 C 8,8 C 6,4 C 74 % 0 % 996 hPa 0,0 l/m 8,1 km/h (2 Bft) 0 min
08.03.2013 20:52 22,0 C 8,7 C 6,4 C 74 % 0 % 996 hPa 0,0 l/m 9,4 km/h (2 Bft) 0 min
08.03.2013 20:55 22,0 C 8,6 C 6,5 C 73 % 0 % 996 hPa 0,0 l/m 5,3 km/h (1 Bft) 0 min
08.03.2013 20:58 22,0 C 8,6 C 6,2 C 73 % 0 % 996 hPa 0,0 l/m 3,4 km/h (1 Bft) 0 min
08.03.2013 21:01 22,0 C 8,5 C 6,2 C 73 % 0 % 996 hPa 0,0 l/m 3,4 km/h (1 Bft) 0 min
08.03.2013 21:04 22,0 C 8,5 C 6,0 C 74 % 0 % 996 hPa 0,0 l/m 6,3 km/h (2 Bft) 0 min
08.03.2013 21:07 22,0 C 8,4 C 6,0 C 74 % 0 % 996 hPa 0,0 l/m 4,0 km/h (1 Bft) 0 min
08.03.2013 21:10 22,0 C 8,3 C 5,9 C 74 % 0 % 996 hPa 0,0 l/m 6,3 km/h (2 Bft) 0 min
08.03.2013 21:13 22,0 C 8,3 C 6,0 C 74 % 0 % 996 hPa 0,0 l/m 6,3 km/h (2 Bft) 0 min
08.03.2013 21:16 22,0 C 8,3 C 6,1 C 74 % 0 % 996 hPa 0,0 l/m 8,5 km/h (2 Bft) 0 min
08.03.2013 21:19 22,0 C 8,2 C 6,0 C 75 % 0 % 996 hPa 0,0 l/m 8,5 km/h (2 Bft) 0 min
08.03.2013 21:22 22,0 C 8,2 C 5,7 C 75 % 0 % 996 hPa 0,0 l/m 6,0 km/h (2 Bft) 0 min
08.03.2013 21:25 22,0 C 8,2 C 5,3 C 75 % 0 % 996 hPa 0,0 l/m 4,7 km/h (1 Bft) 0 min
08.03.2013 21:28 22,0 C 8,2 C 5,8 C 75 % 0 % 996 hPa 0,0 l/m 2,7 km/h (1 Bft) 0 min
08.03.2013 21:31 22,0 C 8,1 C 5,7 C 75 % 0 % 996 hPa 0,0 l/m 2,1 km/h (1 Bft) 0 min
08.03.2013 21:34 22,0 C 8,1 C 5,6 C 75 % 0 % 996 hPa 0,0 l/m 0,0 km/h (0 Bft) 0 min
08.03.2013 21:37 22,0 C 8,0 C 5,0 C 75 % 0 % 996 hPa 0,0 l/m 0,0 km/h (0 Bft) 0 min
08.03.2013 21:40 22,0 C 8,0 C 5,1 C 75 % 0 % 996 hPa 0,0 l/m 0,0 km/h (0 Bft) 0 min
08.03.2013 21:43 22,0 C 8,0 C 5,2 C 75 % 0 % 996 hPa 0,0 l/m 0,0 km/h (0 Bft) 0 min
08.03.2013 21:46 22,0 C 8,0 C 5,0 C 75 % 0 % 996 hPa 0,0 l/m 0,0 km/h (0 Bft) 0 min
08.03.2013 21:49 22,0 C 7,9 C 5,1 C 75 % 0 % 996 hPa 0,0 l/m 0,0 km/h (0 Bft) 0 min
08.03.2013 21:52 22,0 C 7,9 C 4,9 C 75 % 0 % 996 hPa 0,0 l/m 0,0 km/h (0 Bft) 0 min
08.03.2013 21:55 22,0 C 7,9 C 4,8 C 75 % 0 % 996 hPa 0,0 l/m 0,0 km/h (0 Bft) 0 min
08.03.2013 21:58 22,0 C 7,8 C 5,0 C 75 % 0 % 996 hPa 0,0 l/m 0,0 km/h (0 Bft) 0 min
08.03.2013 22:01 22,0 C 7,8 C 4,9 C 75 % 0 % 996 hPa 0,0 l/m 0,0 km/h (0 Bft) 0 min
08.03.2013 22:04 22,0 C 7,8 C 4,9 C 75 % 0 % 996 hPa 0,0 l/m 0,7 km/h (0 Bft) 0 min
08.03.2013 22:07 22,0 C 7,7 C 5,2 C 75 % 0 % 996 hPa 0,0 l/m 5,7 km/h (1 Bft) 0 min
08.03.2013 22:10 22,0 C 7,8 C 5,1 C 75 % 0 % 996 hPa 0,0 l/m 5,9 km/h (2 Bft) 0 min
08.03.2013 22:13 22,0 C 7,8 C 5,2 C 75 % 0 % 996 hPa 0,0 l/m 5,7 km/h (1 Bft) 0 min
08.03.2013 22:16 22,0 C 7,8 C 5,2 C 75 % 0 % 996 hPa 0,0 l/m 5,0 km/h (1 Bft) 0 min
08.03.2013 22:19 22,0 C 7,8 C 5,2 C 75 % 0 % 996 hPa 0,0 l/m 5,2 km/h (1 Bft) 0 min
08.03.2013 22:22 22,0 C 7,8 C 5,5 C 75 % 0 % 996 hPa 0,0 l/m 0,0 km/h (0 Bft) 0 min
08.03.2013 22:25 22,0 C 7,8 C 5,3 C 75 % 0 % 996 hPa 0,0 l/m 0,1 km/h (0 Bft) 0 min
08.03.2013 22:28 22,0 C 7,6 C 5,1 C 76 % 0 % 996 hPa 0,0 l/m 0,0 km/h (0 Bft) 0 min
08.03.2013 22:31 21,9 C 7,5 C 5,1 C 77 % 0 % 996 hPa 0,0 l/m 0,0 km/h (0 Bft) 0 min
08.03.2013 22:34 21,9 C 7,4 C 5,4 C 78 % 0 % 996 hPa 0,0 l/m 1,9 km/h (1 Bft) 0 min
08.03.2013 22:37 21,9 C 7,4 C 5,2 C 78 % 0 % 996 hPa 0,0 l/m 0,7 km/h (0 Bft) 0 min
08.03.2013 22:40 21,9 C 7,3 C 5,5 C 79 % 0 % 996 hPa 0,0 l/m 0,0 km/h (0 Bft) 0 min
08.03.2013 22:43 21,9 C 7,3 C 4,8 C 79 % 0 % 996 hPa 0,0 l/m 0,0 km/h (0 Bft) 0 min
08.03.2013 22:46 21,9 C 7,3 C 5,1 C 79 % 0 % 996 hPa 0,0 l/m 0,0 km/h (0 Bft) 0 min
08.03.2013 22:49 21,8 C 7,2 C 5,1 C 79 % 0 % 996 hPa 0,0 l/m 0,0 km/h (0 Bft) 0 min
08.03.2013 22:52 21,8 C 7,3 C 5,2 C 79 % 0 % 996 hPa 0,0 l/m 0,0 km/h (0 Bft) 0 min
08.03.2013 22:55 21,8 C 7,3 C 5,2 C 80 % 0 % 996 hPa 0,0 l/m 0,0 km/h (0 Bft) 0 min
08.03.2013 22:58 21,8 C 7,3 C 5,2 C 80 % 0 % 996 hPa 0,0 l/m 0,0 km/h (0 Bft) 0 min
08.03.2013 23:01 21,8 C 7,3 C 5,4 C 80 % 0 % 996 hPa 0,0 l/m 0,1 km/h (0 Bft) 0 min
08.03.2013 23:04 21,8 C 7,3 C 5,2 C 80 % 0 % 996 hPa 0,0 l/m 0,0 km/h (0 Bft) 0 min
08.03.2013 23:07 21,8 C 7,3 C 5,1 C 79 % 0 % 996 hPa 0,0 l/m 0,0 km/h (0 Bft) 0 min
08.03.2013 23:10 21,8 C 7,3 C 5,5 C 79 % 0 % 996 hPa 0,0 l/m 0,0 km/h (0 Bft) 0 min
08.03.2013 23:13 21,8 C 7,3 C 5,6 C 79 % 0 % 996 hPa 0,0 l/m 0,0 km/h (0 Bft) 0 min
08.03.2013 23:16 21,8 C 7,3 C 5,4 C 79 % 0 % 996 hPa 0,0 l/m 0,0 km/h (0 Bft) 0 min
08.03.2013 23:19 21,8 C 7,4 C 5,4 C 78 % 0 % 996 hPa 0,0 l/m 0,0 km/h (0 Bft) 0 min
08.03.2013 23:22 21,8 C 7,4 C 5,5 C 78 % 0 % 996 hPa 0,0 l/m 0,0 km/h (0 Bft) 0 min
08.03.2013 23:25 21,8 C 7,4 C 5,6 C 78 % 0 % 996 hPa 0,0 l/m 0,0 km/h (0 Bft) 0 min
08.03.2013 23:28 21,8 C 7,4 C 5,6 C 78 % 0 % 996 hPa 0,0 l/m 0,0 km/h (0 Bft) 0 min
08.03.2013 23:31 21,8 C 7,4 C 5,9 C 77 % 0 % 996 hPa 0,0 l/m 0,0 km/h (0 Bft) 0 min
08.03.2013 23:34 21,8 C 7,4 C 6,0 C 78 % 0 % 996 hPa 0,0 l/m 0,0 km/h (0 Bft) 0 min
08.03.2013 23:37 21,8 C 7,4 C 6,0 C 79 % 0 % 996 hPa 0,0 l/m 0,0 km/h (0 Bft) 0 min
08.03.2013 23:40 21,8 C 7,3 C 6,0 C 79 % 0 % 996 hPa 0,0 l/m 0,0 km/h (0 Bft) 0 min
08.03.2013 23:43 21,7 C 7,3 C 6,2 C 80 % 0 % 996 hPa 0,0 l/m 0,0 km/h (0 Bft) 0 min
08.03.2013 23:46 21,8 C 7,3 C 5,9 C 80 % 0 % 996 hPa 0,0 l/m 0,0 km/h (0 Bft) 0 min
08.03.2013 23:49 21,7 C 7,3 C 5,7 C 80 % 0 % 996 hPa 0,0 l/m 0,0 km/h (0 Bft) 0 min
08.03.2013 23:52 21,7 C 7,3 C 5,5 C 79 % 0 % 996 hPa 0,0 l/m 0,0 km/h (0 Bft) 0 min
08.03.2013 23:55 21,7 C 7,3 C 5,5 C 79 % 0 % 996 hPa 0,0 l/m 0,0 km/h (0 Bft) 0 min
08.03.2013 23:58 21,7 C 7,3 C 5,8 C 79 % 0 % 996 hPa 0,0 l/m 0,0 km/h (0 Bft) 0 min
_ Min-Zeit 08:34 05:31 07:31 15:46 - 14:04 - 00:00 -
Minimum _ 20,0 C 5,8 C 3,6 C 46 % - 993 hPa - 0,0 km/h (0 Bft) -
_ Max-Zeit 07:58 14:22 13:52 07:46 11:46 00:00 00:00 17:55 06:46
Maximum _ 22,2 C 16,3 C 20,6 C 81 % 100 % 996 hPa 0,0 l/m 24,8 km/h
SO (4 Bft)
3 min
Durchschnitt _ 21,8 C 10,1 C 10,0 C 69 % #7:24 h 995 hPa #0,0 l/m 6,5 km/h (2 Bft) #7:24 h